When you browse on this site, cookies collect data to enhance your experience and personalize the content and advertising you see.
Visit our Privacy Policy to learn more. By continuing to use the site, you agree to this use of cookies and data.

Météo par heure à Paris

Ce jour, 28 Septembre, Lundi

Heure Température Précipitation Vent Pression Humidité
00:00 +13°C° 0 mm 5 m/s 752 mmHg 90%
01:00 +13°C° 0.4 mm 5 m/s 752 mmHg 90%
02:00 +13°C° 0.4 mm 5 m/s 752 mmHg 90%
03:00 +13°C° 0.4 mm 5 m/s 751 mmHg 89%
04:00 +13°C° 0.3 mm 5 m/s 752 mmHg 89%
05:00 +13°C° 0.3 mm 5 m/s 752 mmHg 90%
06:00 +13°C° 0 mm 5 m/s 753 mmHg 89%
07:00 +13°C° 0.1 mm 4 m/s 753 mmHg 88%
08:00 +13°C° 0.1 mm 4 m/s 753 mmHg 88%
09:00 +13°C° 0.1 mm 4 m/s 753 mmHg 88%
10:00 +14°C° 0.1 mm 4 m/s 754 mmHg 85%
11:00 +14°C° 0.1 mm 4 m/s 754 mmHg 82%
12:00 +15°C° 0.1 mm 5 m/s 754 mmHg 79%
13:00 +15°C° 0 mm 4 m/s 754 mmHg 73%
14:00 +15°C° 0 mm 4 m/s 754 mmHg 67%
15:00 +15°C° 0 mm 4 m/s 754 mmHg 61%
16:00 +15°C° 0 mm 4 m/s 755 mmHg 60%
17:00 +16°C° 0 mm 3 m/s 755 mmHg 58%
18:00 +14°C° 0 mm 3 m/s 755 mmHg 57%
19:00 +14°C° 0 mm 3 m/s 756 mmHg 64%
20:00 +14°C° 0 mm 2 m/s 756 mmHg 72%
21:00 +14°C° 0 mm 2 m/s 757 mmHg 79%
22:00 +14°C° 0 mm 2 m/s 757 mmHg 82%
23:00 +14°C° 0 mm 2 m/s 757 mmHg 85%

Demain, 29 Septembre, Mardi

Heure Température Précipitation Vent Pression Humidité
00:00 +14°C° 0 mm 2 m/s 757 mmHg 88%
01:00 +14°C° 0 mm 2 m/s 757 mmHg 88%
02:00 +14°C° 0 mm 2 m/s 757 mmHg 89%
03:00 +15°C° 0 mm 2 m/s 757 mmHg 90%
04:00 +15°C° 0.1 mm 2 m/s 757 mmHg 90%
05:00 +15°C° 0.1 mm 2 m/s 757 mmHg 90%
06:00 +15°C° 0.1 mm 2 m/s 757 mmHg 90%
07:00 +15°C° 0.2 mm 2 m/s 757 mmHg 89%
08:00 +16°C° 0.2 mm 2 m/s 758 mmHg 88%
09:00 +16°C° 0.2 mm 3 m/s 758 mmHg 87%
10:00 +17°C° 0.1 mm 3 m/s 758 mmHg 83%
11:00 +18°C° 0.1 mm 3 m/s 758 mmHg 80%
12:00 +19°C° 0.1 mm 3 m/s 758 mmHg 76%
13:00 +19°C° 0.3 mm 3 m/s 758 mmHg 75%
14:00 +20°C° 0.3 mm 3 m/s 757 mmHg 73%
15:00 +20°C° 0.3 mm 3 m/s 757 mmHg 71%
16:00 +19°C° 0.2 mm 2 m/s 757 mmHg 74%
17:00 +19°C° 0.2 mm 2 m/s 757 mmHg 78%
18:00 +18°C° 0.2 mm 2 m/s 757 mmHg 81%
19:00 +18°C° 0 mm 1 m/s 757 mmHg 83%
20:00 +18°C° 0 mm 1 m/s 757 mmHg 85%
21:00 +16°C° 0 mm 1 m/s 757 mmHg 86%
22:00 +16°C° 0 mm 1 m/s 757 mmHg 87%
23:00 +16°C° 0 mm 1 m/s 757 mmHg 88%

Après-demain, 30 Septembre, Mercredi

Heure Température Précipitation Vent Pression Humidité
00:00 +15°C° 0 mm 1 m/s 757 mmHg 89%
01:00 +15°C° 0.1 mm 1 m/s 757 mmHg 89%
02:00 +15°C° 0.1 mm 1 m/s 756 mmHg 89%
03:00 +15°C° 0.1 mm 2 m/s 756 mmHg 89%
04:00 +15°C° 0 mm 2 m/s 756 mmHg 89%
05:00 +15°C° 0 mm 2 m/s 756 mmHg 89%
06:00 +15°C° 0 mm 2 m/s 755 mmHg 89%
07:00 +16°C° 0.1 mm 3 m/s 755 mmHg 86%
08:00 +16°C° 0.1 mm 3 m/s 755 mmHg 84%
09:00 +17°C° 0.1 mm 3 m/s 755 mmHg 81%
10:00 +18°C° 0.1 mm 3 m/s 754 mmHg 75%
11:00 +19°C° 0.1 mm 3 m/s 754 mmHg 70%
12:00 +20°C° 0.1 mm 3 m/s 754 mmHg 65%
13:00 +20°C° 0.1 mm 4 m/s 753 mmHg 63%
14:00 +20°C° 0.1 mm 4 m/s 752 mmHg 61%
15:00 +20°C° 0.1 mm 4 m/s 752 mmHg 59%
16:00 +20°C° 0 mm 4 m/s 752 mmHg 61%
17:00 +19°C° 0 mm 3 m/s 751 mmHg 64%
18:00 +18°C° 0 mm 3 m/s 751 mmHg 67%
19:00 +18°C° 0 mm 4 m/s 751 mmHg 69%
20:00 +18°C° 0 mm 4 m/s 750 mmHg 71%
21:00 +18°C° 0 mm 4 m/s 750 mmHg 72%
22:00 +17°C° 0.2 mm 4 m/s 749 mmHg 75%
23:00 +16°C° 0.2 mm 5 m/s 749 mmHg 77%

1 Octobre, Jeudi

Heure Température Précipitation Vent Pression Humidité
00:00 +15°C° 0.2 mm 5 m/s 748 mmHg 79%
01:00 +15°C° 1.9 mm 4 m/s 748 mmHg 82%
02:00 +15°C° 1.9 mm 4 m/s 747 mmHg 85%
03:00 +14°C° 1.9 mm 4 m/s 747 mmHg 88%
04:00 +14°C° 0.7 mm 3 m/s 747 mmHg 85%
05:00 +14°C° 0.7 mm 3 m/s 747 mmHg 82%
06:00 +14°C° 0.7 mm 2 m/s 747 mmHg 79%
07:00 +14°C° 0 mm 3 m/s 747 mmHg 75%
08:00 +14°C° 0 mm 3 m/s 747 mmHg 70%
09:00 +16°C° 0 mm 3 m/s 747 mmHg 65%
10:00 +17°C° 0 mm 3 m/s 747 mmHg 60%
11:00 +17°C° 0 mm 3 m/s 747 mmHg 55%
12:00 +18°C° 0 mm 4 m/s 746 mmHg 50%
13:00 +18°C° 0 mm 4 m/s 746 mmHg 50%
14:00 +18°C° 0 mm 3 m/s 746 mmHg 50%
15:00 +18°C° 0 mm 3 m/s 745 mmHg 49%
16:00 +18°C° 0.1 mm 3 m/s 745 mmHg 53%
17:00 +17°C° 0.1 mm 3 m/s 745 mmHg 56%
18:00 +16°C° 0.1 mm 3 m/s 744 mmHg 60%
19:00 +14°C° 0.3 mm 4 m/s 744 mmHg 65%
20:00 +14°C° 0.3 mm 4 m/s 744 mmHg 70%
21:00 +13°C° 0.3 mm 5 m/s 744 mmHg 75%
22:00 +13°C° 0.5 mm 4 m/s 743 mmHg 77%
23:00 +12°C° 0.5 mm 3 m/s 743 mmHg 79%

2 Octobre, Vendredi

Heure Température Précipitation Vent Pression Humidité
00:00 +12°C° 0.5 mm 3 m/s 742 mmHg 81%
01:00 +12°C° 0 mm 3 m/s 742 mmHg 83%
02:00 +11°C° 0 mm 4 m/s 741 mmHg 85%
03:00 +11°C° 0 mm 4 m/s 741 mmHg 86%
04:00 +10°C° 0.2 mm 5 m/s 740 mmHg 86%
05:00 +12°C° 0.2 mm 5 m/s 739 mmHg 86%
06:00 +11°C° 0.2 mm 6 m/s 738 mmHg 86%
07:00 +11°C° 1.4 mm 7 m/s 737 mmHg 86%
08:00 +12°C° 1.4 mm 7 m/s 736 mmHg 85%
09:00 +12°C° 1.4 mm 8 m/s 735 mmHg 85%
10:00 +13°C° 1.5 mm 8 m/s 736 mmHg 82%
11:00 +14°C° 1.5 mm 7 m/s 736 mmHg 78%
12:00 +14°C° 1.5 mm 6 m/s 737 mmHg 75%
13:00 +14°C° 0.1 mm 6 m/s 737 mmHg 71%
14:00 +14°C° 0.1 mm 5 m/s 738 mmHg 67%
15:00 +14°C° 0.1 mm 5 m/s 738 mmHg 63%
16:00 +13°C° 0 mm 4 m/s 739 mmHg 65%
17:00 +13°C° 0 mm 4 m/s 739 mmHg 68%
18:00 +12°C° 0 mm 3 m/s 740 mmHg 71%
19:00 +12°C° 0 mm 4 m/s 740 mmHg 72%
20:00 +12°C° 0 mm 4 m/s 741 mmHg 74%
21:00 +10°C° 0 mm 5 m/s 741 mmHg 75%
22:00 +10°C° 0 mm 5 m/s 741 mmHg 77%
23:00 +11°C° 0 mm 4 m/s 741 mmHg 79%

3 Octobre, Samedi

Heure Température Précipitation Vent Pression Humidité
00:00 +11°C° 0 mm 4 m/s 741 mmHg 80%
01:00 +11°C° 0 mm 4 m/s 741 mmHg 81%
02:00 +10°C° 0 mm 4 m/s 740 mmHg 81%
03:00 +10°C° 0 mm 4 m/s 740 mmHg 82%
04:00 +10°C° 0 mm 4 m/s 741 mmHg 82%
05:00 +10°C° 0 mm 3 m/s 741 mmHg 83%
06:00 +9°C° 0 mm 3 m/s 741 mmHg 84%
07:00 +10°C° 0 mm 4 m/s 741 mmHg 80%
08:00 +11°C° 0 mm 4 m/s 742 mmHg 76%
09:00 +12°C° 0 mm 5 m/s 742 mmHg 72%
10:00 +13°C° 0 mm 5 m/s 742 mmHg 68%
11:00 +14°C° 0 mm 5 m/s 742 mmHg 63%
12:00 +15°C° 0 mm 5 m/s 742 mmHg 59%
13:00 +15°C° 0.1 mm 6 m/s 743 mmHg 57%
14:00 +15°C° 0.1 mm 6 m/s 743 mmHg 56%
15:00 +16°C° 0.1 mm 6 m/s 743 mmHg 54%
16:00 +15°C° 0.1 mm 5 m/s 743 mmHg 58%
17:00 +14°C° 0.1 mm 5 m/s 744 mmHg 62%
18:00 +13°C° 0.1 mm 4 m/s 744 mmHg 66%
19:00 +12°C° 0 mm 4 m/s 745 mmHg 68%
20:00 +12°C° 0 mm 3 m/s 745 mmHg 70%
21:00 +11°C° 0 mm 3 m/s 745 mmHg 72%
22:00 +11°C° 0 mm 3 m/s 746 mmHg 74%
23:00 +10°C° 0 mm 4 m/s 746 mmHg 76%
Voir plus